Zurück zum Katalog

STARLINK-6162

AktivKommunikationVLEO
NORAD 57131·PAYLOAD·🇺🇸 United States

Gestartet Jun 23, 2023 von Cape Canaveral Space Force Station

Loading…

Nächste Überflüge (nächste 24 Stunden)

TLE

AktuellSource: CelesTrak SupGP

Epoche: Sep 14, 2026, 22:01 UTC

1 57131C 23090AG  26257.91784722  .00018993  00000+0  68807-3 0  2571
2 57131  43.0025 274.4139 0001467 298.8206 166.9968 15.27562893    10

Verfolge STARLINK-6162 in Echtzeit mit AllMySat

Download on the App Store